Location: Cabobito
(9.9667°N, 67.8000°W)
Time: 11:22:07
(UTC+00:00)

Daily predictions for brighter satellites

Satellite Brightness Start Highest point End
(mag) Time Altitude Azimuth Time Altitude Azimuth Time Altitude Azimuth
[s.n.59504] 4.4 22:59:29 10° N 23:01:11 16° NE 23:02:54 10° E
[s.n.59503] 4.4 22:59:51 10° N 23:01:35 16° NE 23:03:19 10° E
[s.n.59502] 4.4 23:00:11 10° N 23:01:56 16° NE 23:03:41 10° E
[s.n.59501] 4.4 23:00:33 10° N 23:02:19 16° NE 23:04:04 10° E
[s.n.59500] 4.4 23:00:50 10° N 23:02:37 17° NE 23:04:24 10° E
[s.n.59490] 4.4 23:00:54 10° N 23:02:41 17° NE 23:04:28 10° E
[s.n.59499] 4.4 23:01:07 10° N 23:02:55 17° NE 23:04:43 10° E
[s.n.59498] 4.3 23:01:26 10° N 23:03:16 17° NE 23:05:05 10° E
[s.n.59496] 4.3 23:01:51 10° N 23:03:41 17° NE 23:05:31 10° E
[s.n.59497] 4.3 23:02:12 10° N 23:04:03 17° NE 23:05:54 10° E
[s.n.59495] 4.3 23:02:28 10° N 23:04:20 17° NE 23:06:10 10° E
[s.n.59494] 4.3 23:02:49 10° N 23:04:42 18° NE 23:06:35 10° E
[s.n.59493] 4.3 23:03:03 10° N 23:04:57 18° NE 23:06:51 10° E
[s.n.59492] 4.3 23:03:24 10° N 23:05:20 18° NE 23:07:15 10° E
[s.n.59491] 4.2 23:04:05 10° N 23:06:02 19° NE 23:07:59 10° E
[s.n.59487] 4.2 23:04:22 10° N 23:06:20 19° NE 23:08:18 10° E
Cosmos 1346 Rocket 2.6 23:02:47 10° S 23:06:36 81° E 23:10:25 10° N
[s.n.59489] 4.2 23:04:39 10° N 23:06:37 19° NE 23:08:35 10° E
[s.n.59488] 4.2 23:05:01 10° N 23:06:59 19° NE 23:08:58 10° E
[s.n.59486] 4.2 23:05:24 10° N 23:07:25 19° NE 23:09:25 10° E
[s.n.59485] 4.1 23:05:40 10° N 23:07:42 20° NE 23:09:42 10° E
[s.n.59484] 4.1 23:05:55 10° N 23:07:56 20° NE 23:09:55 10° E
NOAA 6 4.0 23:06:07 10° SSE 23:11:13 71° ENE 23:16:17 10° N
Intelsat 5-3 Rocket 4.0 23:08:21 10° WSW 23:13:32 90° NE 23:27:13 10° ENE
NOSS 3-1 (A) 3.5 23:10:15 10° SW 23:14:47 57° WNW 23:19:25 10° NNE
Cosmos 2221 Rocket 3.6 23:12:57 10° N 23:17:25 60° E 23:21:52 10° SSE
Cosmos 2154 Rocket 4.2 23:11:33 10° N 23:17:43 79° W 23:23:55 10° S
USA 229 DEB 3.8 23:17:39 10° S 23:22:59 36° ESE 23:28:24 10° NE
USA 229 3.8 23:17:44 10° S 23:23:04 36° ESE 23:28:29 10° NE
CBERS 1 LM4 rocket 4.3 23:19:32 10° SSE 23:24:18 71° ENE 23:28:58 10° N
Palapa 6 Rocket 4.0 23:23:45 10° NW 23:26:58 27° NNE 23:29:29 14° ENE
CZ-4B R/B 3.4 23:23:41 10° SSE 23:28:43 73° ENE 23:33:36 10° N
IGS 5A 3.8 23:25:08 10° S 23:29:11 67° W 23:33:13 10° NNW
Cosmos 1741 Rocket 4.0 23:25:46 10° N 23:30:59 68° ENE 23:36:14 10° SSE
Delta 7925 Rocket 3.5 23:29:00 10° WNW 23:33:55 88° SSW 23:38:08 20° ESE
GPS 2-14 Rocket1 2.7 23:31:23 10° WNW 23:34:39 49° NNE 23:36:17 25° E
GOES 2 Rocket 3.0 23:31:31 10° WSW 23:35:47 84° SSE 23:40:07 14° ENE
Radarsat Rocket 4.5 23:29:25 10° S 23:36:38 76° WSW 23:42:59 10° NNW
H-2A R/B 3.6 22:58:02 10° WSW 23:36:56 79° NNW 23:41:30 11° ENE
YAOGAN 3 4.5 23:32:58 10° SSE 23:37:15 86° E 23:41:33 10° N
Cosmos 1674 Rocket 4.3 23:36:26 10° NNW 23:40:46 57° W 23:45:06 10° S
Cosmos 1455 4.1 23:38:32 10° SSW 23:41:42 31° W 23:44:53 10° NNW
Iridium 921 4.3 23:38:39 10° N 23:42:06 70° E 23:45:34 10° S
Meteor PRIRODA 3.3 23:41:48 10° SSE 23:45:11 90° NE 23:48:36 10° N
Cosmos 1025 Rocket 3.3 23:41:07 10° NNE 23:45:17 44° E 23:47:45 22° SSE
ATLAS 3B R/B 4.4 23:41:09 10° SW 23:47:01 34° WNW 23:53:17 10° N
Cosmos 1850 Rocket 4.2 23:42:33 10° NNW 23:47:45 71° WSW 23:52:54 10° S
Cosmos 962 Rocket 4.5 23:41:49 10° N 23:48:11 84° E 23:54:33 10° S
CZ-3C R/B 3.7 23:40:15 10° W 23:48:41 22° SW 23:51:46 10° S
Star 37E S/N 40062 4.5 23:47:28 10° NNW 23:47:57 16° NNW 23:47:57 16° NNW
Cosmos 2181 Rocket 4.2 23:43:23 10° S 23:49:28 72° W 23:55:37 10° N
Cosmos 2098 Rocket 3.6 23:47:52 10° S 23:53:53 89° E 23:58:53 10° N
Resurs 1-3 4.0 23:53:07 36° ESE 23:53:55 40° ENE 23:57:59 10° N
Cosmos 1656 3.7 23:48:34 10° S 23:54:03 53° ESE 23:59:27 10° NNE
YAOGAN 1 3.1 23:50:34 10° S 23:54:46 57° WSW 23:58:58 10° NNW
